Simultaneous Nadir Overpasses (SNOs) Predictions

Prediction of SNOs between NOAA-21 and NOAA-19 Satellite Orbit:

Table of predicted SNOs for the next 14.0 days since TLE Epoch: 8/24/2024
Index Date (NOAA-21) Time (NOAA-21) Lat,Lon (NOAA-21) SZA (NOAA-21 ) Date (NOAA-19) Time (NOAA-19) Lat,Lon (NOAA-19) SZA (NOAA-19 ) Distance(km) Time Diff (sec)
1 09/02/2024 07:49:26 -72.19,-124.47 115.46 09/02/2024 07:48:17 -72.21,-126.55 115.32 71.00 69
2 09/02/2024 08:40:18 72.51, 42.21 64.90 09/02/2024 08:39:06 72.50, 41.33 64.95 29.45 72
3 09/02/2024 09:31:07 -72.75,-150.98 114.82 09/02/2024 09:30:04 -72.74,-150.93 114.83 2.31 63
4 09/02/2024 10:21:52 72.72, 16.40 65.16 09/02/2024 10:20:59 72.74, 16.34 65.19 2.72 53
5 09/02/2024 11:12:37 -72.76,-176.37 114.79 09/02/2024 11:12:01 -72.77,-176.34 114.77 1.58 36
6 09/02/2024 12:03:23 72.78, -9.10 65.25 09/02/2024 12:02:56 72.77, -9.08 65.24 1.37 27
7 09/02/2024 12:54:07 -72.77, 158.24 114.75 09/02/2024 12:53:59 -72.76, 158.13 114.76 3.81 8
8 09/02/2024 13:44:53 72.79, -34.49 65.28 09/02/2024 13:44:53 72.80, -34.50 65.30 1.42 0
9 09/02/2024 14:35:38 -72.83, 132.74 114.66 09/02/2024 14:35:55 -72.84, 132.82 114.66 2.91 17
10 09/02/2024 15:26:24 72.85, -59.99 65.37 09/02/2024 15:26:50 72.83, -59.92 65.35 2.73 26
11 09/02/2024 16:17:08 -72.84, 107.35 114.63 09/02/2024 16:17:53 -72.82, 107.30 114.65 2.42 45
12 09/02/2024 17:07:54 72.86, -85.38 65.41 09/02/2024 17:08:47 72.86, -85.34 65.40 1.64 53
13 09/02/2024 17:58:38 -72.85, 81.96 114.60 09/02/2024 17:59:50 -72.85, 81.88 114.60 2.72 72
14 09/02/2024 18:49:29 73.12,-111.31 65.72 09/02/2024 18:50:41 73.05,-110.42 65.59 29.85 72



Historial Predications of SNOs between NOAA-21 and NOAA-19
